Glenwood Springs, CO

7:06 PM MST on February 21, 2017 (GMT -0700)
Sunlight Mountain

Weather History for K5SM - July, 2013

Change the Weather History Date:

Tuesday, July 2, 2013

  Actual Average (KRIL) Record (KRIL)
Temperature  
Mean Temperature 60 °F -  
Max Temperature 68 °F 91 °F 100 °F (1929)
Min Temperature 51 °F 48 °F 36 °F (1959)
Degree Days  
Heating Degree Days 6    
Growing Degree Days 10 (Base 50)    
Moisture  
Dew Point 38 °F    
Average Humidity 46    
Maximum Humidity 62    
Minimum Humidity 32    
Precipitation  
Precipitation 0.00 in - - ()
Sea Level Pressure  
Sea Level Pressure 30.59 in    
Wind  
Wind Speed 3 mph (NE)    
Max Wind Speed 7 mph    
Max Gust Speed -    
Visibility 9 miles    
Events      
Averages and records for this station are not official NWS values.
T = Trace of Precipitation, MM = Missing Value Source: NWS Daily Summary

Daily Weather History Graph

Daily Weather History Graph

Search for Another Location

Airport or City:

Trip Planner

Search our weather history database for the weather conditions in past years. The results will help you decide how hot, cold, wet, or windy it might be!

Date:

Astronomy

Jul. 02, 2013 Rise Set
Actual Time 5:46 AM MDT 8:40 PM MDT
Civil Twilight 5:14 AM MDT 9:12 PM MDT
Nautical Twilight 4:33 AM MDT 9:53 PM MDT
Astronomical Twilight 3:47 AM MDT 10:39 PM MDT
Moon 1:50 AM MDT (7/2) 3:57 PM MDT (7/2)
Length of Visible Light 15h 57m
Length of Day
14h 53m
Waning Crescent, 26% of the Moon is Illuminated
Jul 2
Waning Crescent
Jul 8
New
Jul 15
First Quarter
Jul 22
Full
Jul 29
Last Quarter

Hourly Weather History & Observations

Time (MDT) Temp. Dew Point Humidity Pressure Visibility Wind Dir Wind Speed Gust Speed Precip Events Conditions
12:00 AM 55.4 °F 37.4 °F 51% 30.63 in 7.0 mi ENE 3.5 mph - N/A   Clear
12:20 AM 53.6 °F 39.2 °F 58% 30.63 in 7.0 mi NE 3.5 mph - N/A   Clear
12:39 AM 53.6 °F 39.2 °F 58% 30.62 in 7.0 mi NE 4.6 mph - N/A   Clear
1:00 AM 53.6 °F 39.2 °F 58% 30.62 in 7.0 mi NE 4.6 mph - N/A   Scattered Clouds
1:20 AM 53.6 °F 39.2 °F 58% 30.62 in 7.0 mi NE 4.6 mph - N/A   Scattered Clouds
1:40 AM 53.6 °F 39.2 °F 58% 30.62 in 7.0 mi ENE 4.6 mph - N/A   Scattered Clouds
2:00 AM 53.6 °F 39.2 °F 58% 30.62 in 7.0 mi ENE 4.6 mph - N/A   Mostly Cloudy
2:20 AM 53.6 °F 39.2 °F 58% 30.62 in 7.0 mi NE 3.5 mph - N/A   Mostly Cloudy
2:40 AM 53.6 °F 39.2 °F 58% 30.62 in 7.0 mi ENE 3.5 mph - N/A   Scattered Clouds
3:00 AM 53.6 °F 37.4 °F 54% 30.61 in 7.0 mi ENE 3.5 mph - N/A   Scattered Clouds
3:20 AM 53.6 °F 37.4 °F 54% 30.61 in 7.0 mi Calm Calm - N/A   Scattered Clouds
3:40 AM 53.6 °F 37.4 °F 54% 30.61 in 7.0 mi Calm Calm - N/A   Scattered Clouds
3:59 AM 53.6 °F 37.4 °F 54% 30.61 in 7.0 mi ENE 3.5 mph - N/A   Mostly Cloudy
4:20 AM 51.8 °F 35.6 °F 54% 30.61 in 7.0 mi Calm Calm - N/A   Mostly Cloudy
4:40 AM 51.8 °F 35.6 °F 54% 30.61 in 7.0 mi ENE 3.5 mph - N/A   Mostly Cloudy
4:59 AM 51.8 °F 35.6 °F 54% 30.60 in 7.0 mi ENE 3.5 mph - N/A   Mostly Cloudy
5:20 AM 51.8 °F 35.6 °F 54% 30.60 in 7.0 mi ENE 3.5 mph - N/A   Scattered Clouds
5:40 AM 51.8 °F 35.6 °F 54% 30.60 in 7.0 mi ENE 3.5 mph - N/A   Scattered Clouds
6:00 AM 51.8 °F 37.4 °F 58% 30.61 in 7.0 mi Calm Calm - N/A   Mostly Cloudy
6:20 AM 51.8 °F 37.4 °F 58% 30.61 in 7.0 mi Calm Calm - N/A   Mostly Cloudy
6:39 AM 53.6 °F 39.2 °F 58% 30.61 in 5.0 mi Calm Calm - N/A   Haze
7:00 AM 51.8 °F 39.2 °F 62% 30.61 in 7.0 mi Calm Calm - N/A   Scattered Clouds
7:20 AM 51.8 °F 39.2 °F 62% 30.61 in 7.0 mi Calm Calm - N/A   Scattered Clouds
7:40 AM 53.6 °F 41.0 °F 62% 30.61 in 7.0 mi Calm Calm - N/A   Scattered Clouds
8:20 AM 55.4 °F 41.0 °F 58% 30.62 in 10.0 mi Calm Calm - N/A   Clear
8:39 AM 57.2 °F 41.0 °F 55% 30.62 in 10.0 mi Calm Calm - N/A   Clear
8:59 AM 59.0 °F 39.2 °F 48% 30.62 in 10.0 mi Calm Calm - N/A   Clear
9:20 AM 60.8 °F 41.0 °F 48% 30.62 in 10.0 mi Calm Calm - N/A   Clear
9:40 AM 60.8 °F 39.2 °F 45% 30.62 in 10.0 mi Calm Calm - N/A   Clear
9:59 AM 60.8 °F 37.4 °F 42% 30.62 in 10.0 mi ENE 3.5 mph - N/A   Clear
10:20 AM 62.6 °F 37.4 °F 39% 30.62 in 10.0 mi NNE 4.6 mph - N/A   Clear
10:40 AM 62.6 °F 39.2 °F 42% 30.63 in 10.0 mi NE 3.5 mph - N/A   Clear
11:00 AM 60.8 °F 37.4 °F 42% 30.63 in 10.0 mi Calm Calm - N/A   Scattered Clouds
11:20 AM 62.6 °F 41.0 °F 45% 30.63 in 10.0 mi NE 4.6 mph - N/A   Mostly Cloudy
11:40 AM 64.4 °F 41.0 °F 42% 30.63 in 10.0 mi NNE 5.8 mph - N/A   Mostly Cloudy
12:00 PM 62.6 °F 41.0 °F 45% 30.63 in 10.0 mi NNW 3.5 mph - N/A   Scattered Clouds
12:20 PM 64.4 °F 41.0 °F 42% 30.62 in 10.0 mi Calm Calm - N/A   Scattered Clouds
12:40 PM 62.6 °F 42.8 °F 48% 30.62 in 10.0 mi Calm Calm - N/A   Scattered Clouds
1:00 PM 62.6 °F 39.2 °F 42% 30.62 in 10.0 mi Calm Calm - N/A   Mostly Cloudy
1:20 PM 62.6 °F 41.0 °F 45% 30.61 in 7.0 mi Calm Calm - N/A   Mostly Cloudy
1:39 PM 64.4 °F 41.0 °F 42% 30.61 in 10.0 mi North 6.9 mph - N/A   Scattered Clouds
2:00 PM 66.2 °F 41.0 °F 40% 30.60 in 10.0 mi North 5.8 mph - N/A   Scattered Clouds
2:20 PM 64.4 °F 41.0 °F 42% 30.60 in 10.0 mi North 5.8 mph - N/A   Mostly Cloudy
2:40 PM 64.4 °F 41.0 °F 42% 30.60 in 10.0 mi NNE 5.8 mph - N/A   Mostly Cloudy
3:00 PM 64.4 °F 39.2 °F 40% 30.59 in 10.0 mi NNW 3.5 mph - N/A   Scattered Clouds
3:20 PM 68.0 °F 39.2 °F 35% 30.59 in 10.0 mi Calm Calm - N/A   Scattered Clouds
3:38 PM 68.0 °F 39.2 °F 35% 30.58 in 10.0 mi North 4.6 mph - N/A   Mostly Cloudy
4:00 PM 68.0 °F 37.4 °F 33% 30.58 in 10.0 mi ENE 3.5 mph - N/A   Mostly Cloudy
4:20 PM 66.2 °F 35.6 °F 32% 30.58 in 10.0 mi ENE 3.5 mph - N/A   Overcast
4:40 PM 64.4 °F 35.6 °F 34% 30.57 in 10.0 mi NNE 3.5 mph - N/A   Mostly Cloudy
5:00 PM 66.2 °F 35.6 °F 32% 30.57 in 10.0 mi NNE 3.5 mph - N/A   Mostly Cloudy
5:20 PM 64.4 °F 35.6 °F 34% 30.57 in 10.0 mi Calm Calm - N/A   Mostly Cloudy
5:40 PM 64.4 °F 37.4 °F 37% 30.56 in 10.0 mi Calm Calm - N/A   Mostly Cloudy
6:00 PM 62.6 °F 37.4 °F 39% 30.56 in 10.0 mi NE 3.5 mph - N/A   Scattered Clouds
6:17 PM 64.4 °F 37.4 °F 37% 30.56 in 7.0 mi NE 4.6 mph - N/A   Mostly Cloudy
6:40 PM 64.4 °F 35.6 °F 34% 30.55 in 7.0 mi NNE 4.6 mph - N/A   Scattered Clouds
7:00 PM 62.6 °F 37.4 °F 39% 30.56 in 10.0 mi Calm Calm - N/A   Scattered Clouds
7:20 PM 60.8 °F 37.4 °F 42% 30.56 in 7.0 mi Calm Calm - N/A   Scattered Clouds
7:40 PM 60.8 °F 35.6 °F 39% 30.56 in 10.0 mi NE 3.5 mph - N/A   Scattered Clouds
7:59 PM 60.8 °F 33.8 °F 36% 30.55 in 10.0 mi Calm Calm - N/A   Scattered Clouds
8:20 PM 59.0 °F 35.6 °F 42% 30.55 in 10.0 mi Calm Calm - N/A   Clear
8:40 PM 59.0 °F 33.8 °F 39% 30.54 in 10.0 mi Calm Calm - N/A   Clear
8:59 PM 59.0 °F 33.8 °F 39% 30.54 in 7.0 mi NE 3.5 mph - N/A   Clear
9:20 PM 57.2 °F 32.0 °F 38% 30.55 in 7.0 mi NE 4.6 mph - N/A   Clear
9:39 PM 57.2 °F 32.0 °F 38% 30.55 in 10.0 mi NE 3.5 mph - N/A   Clear
10:00 PM 57.2 °F 32.0 °F 38% 30.55 in 10.0 mi NE 3.5 mph - N/A   Clear
10:20 PM 57.2 °F 32.0 °F 38% 30.55 in 10.0 mi NNE 4.6 mph - N/A   Clear
10:40 PM 57.2 °F 32.0 °F 38% 30.55 in 7.0 mi NE 3.5 mph - N/A   Clear
11:00 PM 55.4 °F 32.0 °F 41% 30.55 in 10.0 mi ENE 3.5 mph - N/A   Clear
11:20 PM 55.4 °F 32.0 °F 41% 30.55 in 10.0 mi NE 4.6 mph - N/A   Clear
11:40 PM 55.4 °F 32.0 °F 41% 30.55 in 10.0 mi NE 3.5 mph - N/A   Clear